COSMOS 2172

导读 | 星芒AI

COSMOS 2172 是一颗由苏联(现俄罗斯)于1991年12月21日发射的军用通信卫星,搭载质子-K火箭从拜科努尔航天发射场升空。该卫星属于“COSMOS”系列,主要用于军事通信和情报传输,其具体任务细节未公开。卫星运行在地球静止轨道,设计寿命较长,具备抗干扰和加密通信能力。由于其军事用途,COSMOS 2172 的技术参数和操作细节高度保密,外界对其了解有限。该系列卫星在冷战后期和后冷战时期对俄罗斯的军事通信系统起到了关键作用。

基本信息
目录编号:
21789
目录名称:
COSMOS 2172
国际标识:
1991-079A
轨道中心:
EARTH
卫星名称:
COSMOS 2172
卫星全名:
--
卫星状态:
在轨 (已飞行12399 天)
发射日期:
1991-11-22 UTC
国别 :
俄罗斯(独联体) (CIS)
星等 :
--
轨道信息
数据来源 国际轨道数据 AOE轨道数据
星历时间 2025-11-01T05:28:16+0800
1天前
查看轨道信息
2025-11-01T17:00:00+0800
1天前
查看轨道信息
半长轴 42166.719km 42166.747km
偏心率 0.0002792 0.0002906
轨道倾角 13.429° 13.428°
近地点辐角 310.584° 308.870°
升交点赤经 342.005° 342.001°
平近点角 58.058° 233.171°
近地点 35776.811km 35776.358km
远地点 35800.357km 35800.866km
周期 1436.198分钟 1436.200分钟
每日圈数 1.002647 1.002646
详细信息
使用方式:
暂无
2D轨道图
3D轨道图
轨道高度分析图
轨道倾角分析图
轨道综合分析图
查看轨道综合分析图